Location: Beranovka
(49.9415°N, 12.8435°E)
Time: 00:04:52
(UTC+00:00)

SL-16 R/B - Pass Details

Date: 10 August 2020
Orbit: 843 x 845 km, 71.0° (Epoch: 23 September)

Event Time Altitude Azimuth Distance (km) Brightness Sun altitude
Rises 21:05:13 0° 329° (NNW) 3,417 7.1 -18.9°
Reaches altitude 10° 21:07:41 10° 328° (NNW) 2,478 5.9 -19.2°
Maximum altitude 21:13:22 76° 244° (WSW) 877 2.2 -19.6°
Enters shadow 21:15:43 36° 167° (SSE) 1,304 2.7 -19.8°
